Zurück zum Katalog

STARLINK-35685

AktivKommunikationVLEO
NORAD 67128·PAYLOAD·🇺🇸 United States

Gestartet Dec 15, 2025 von Cape Canaveral Space Force Station

Loading…

Nächste Überflüge (nächste 24 Stunden)

TLE

AktuellSource: CelesTrak SupGP

Epoche: Sep 15, 2026, 03:21 UTC

1 67128C 25299AC  26258.14006944 -.00005922  00000+0 -21453-3 0  2587
2 67128  42.9995 178.8136 0001317 269.9866  76.5856 15.27577159    13

Verfolge STARLINK-35685 in Echtzeit mit AllMySat

Download on the App Store